Regional Weather Roundup
Issued by NWS

Home | Current Version | Previous Version | Graphics & Text | Print | Product List | Glossary On
Versions: 1 2 3 4 5 6 7 8 9 10 11 12 13 14 15 16 17 18 19 20 21 22 23 24 25 26 27 28 29 30 31 32 33 34 35 36 37 38 39 40 41 42 43 44 45 46 47 48 49 50
000
ASUS45 KTFX 020804
RWRMT
MONTANA HOURLY WEATHER ROUNDUP
NATIONAL WEATHER SERVICE GREAT FALLS MT
204 AM MDT THU OCT 2 2014

NOTE: "FAIR" INDICATES FEW OR NO CLOUDS BELOW 12000 FEET WITH NO
SIGNIFICANT WEATHER AND/OR OBSTRUCTIONS TO VISIBILITY.

* THESE STATIONS ARE NOT UNDER NWS QUALITY CONTROL. THEY DO NOT
   REPORT WEATHER SUCH AS PRECIPITATION OR FOG.

MTZ001>007-043-020900-
WEST OF THE DIVIDE
CITY           SKY/WX    TMP DP  RH WIND       PRES   REMARKS
KALISPELL      CLOUDY    48  37  66 SE6       29.98F
MISSOULA       MOCLDY    45  37  74 E3        30.07S
BUTTE          PTCLDY    36  27  70 N5        30.09S WCI  32
MULLAN PASS    CLOUDY    36  34  92 VRB5      30.05S WCI  32
* ESSEX        N/A       45  39  80 NE1        N/A
* LINCOLN      N/A       43  30  60 SW5G19     N/A
* LOOKOUT PASS N/A       43  35  73 SE4G9      N/A
* POLSON       N/A       45  35  68 S3G9       N/A
* RONAN APT    MOCLDY    48  37  66 SE5        N/A
* SEELEY LAKE  N/A       42  33  71 N/A        N/A
* THOMP F APT  PTCLDY    34  23  64 N5G11      N/A   WCI  29
* YAAK HILL    N/A       53  32  45 SE1G7      N/A
$$

MTZ008-052>055-020900-
SOUTHWEST MONTANA
CITY           SKY/WX    TMP DP  RH WIND       PRES   REMARKS
BOZEMAN        MOCLDY    34  28  79 SE5       30.07S WCI  29
DILLON         PTCLDY    39  28  65 S9        30.10S WCI  33
W YELLOWSTONE  PTCLDY    34  32  92 SW10      30.15R WCI  26
* THREE FORKS  CLOUDY    39  23  53 N/A        N/A
* BOULDER HILL N/A       40  21  47 SE4        N/A
* MONIDA PASS  N/A       31  23  72 SE4        N/A
* RAYNOLDS PAS N/A       31  20  64 SW8        N/A   WCI  24
* WHITEHALL    N/A       43  26  51 NW5G12     N/A
* WISE RIVER   N/A       41  27  58 NW10G20    N/A
$$

MTZ009>010-012-014-046-048-049-054-020900-
EAST SLOPES AND CENTRAL MONTANA
CITY           SKY/WX    TMP DP  RH WIND       PRES   REMARKS
CUT BANK       CLOUDY    39  34  82 N15       29.96R WCI  31
GREAT FALLS    PTCLDY    43  30  60 SW13      29.95S
HELENA         CLOUDY    48  30  50 CALM      30.02F
MALMSTROM AFB  PTCLDY    46  32  58 SW17      29.97S
* CONRAD       PTCLDY    45  34  65 S14G23     N/A
* DEARBORN     N/A       50  29  44 E4G10      N/A
* EAST GLACIER N/A       43  31  63 W7G12      N/A
* MONARCH      N/A       39  18  43 S11G18     N/A   WCI  32
* PENDROY      N/A       43  25  49 W7         N/A
* ROGERS PASS  N/A       40  28  62 SE17G25    N/A   WCI  31
* SAINT MARY   N/A       39  29  67 NE9G16     N/A   WCI  33
* SWEET GRASS  N/A       37  37 100 NE13       N/A   WCI  29
$$

MTZ011-013-016-021-035-040-045-047-050-051-020900-
NORTH CENTRAL MONTANA
CITY           SKY/WX    TMP DP  RH WIND       PRES   REMARKS
HAVRE          CLOUDY    46  32  58 W22G28    29.89R
LEWISTOWN      CLEAR     43  28  56 SW12      29.96S
* CHESTER      N/A       40  34  79 N12G18     N/A   WCI  33
* DENTON       N/A       41  28  60 SW11       N/A
* JUDITH GAP   N/A       40  27  60 W16        N/A   WCI  32
* LOMA         N/A       43  31  63 W8         N/A
$$

MTZ017>020-022>027-061-062-020900-
NORTHEAST MONTANA
CITY           SKY/WX    TMP DP  RH WIND       PRES   REMARKS
GLASGOW        MOCLDY    48  37  66 W9        29.83S
GLENDIVE       PTCLDY    39  36  89 S8        29.91S WCI  33
JORDAN         CLEAR     43  36  76 W7        29.89S
SIDNEY         CLEAR     39  37  93 CALM      29.89S
WOLF POINT     CLOUDY    45  39  80 NW3       29.85S
* BEAVER HILL  N/A       42  38  86 S11        N/A
* CIRCLE       N/A       43  38  83 SW6        N/A
* LINDSAY DVD  N/A       44  35  71 SW9        N/A
* NAVAJO       N/A       44  36  74 SW8        N/A
$$

MTZ028>042-056>058-020900-
SOUTHCENTRAL AND SOUTHEAST MONTANA
CITY           SKY/WX    TMP DP  RH WIND       PRES   REMARKS
BAKER          FAIR      36  34  92 CALM      29.94S
BILLINGS       CLEAR     45  30  56 W8        29.99R
LIVINGSTON     PTCLDY    45  27  49 W15       30.02R
MILES CITY     CLEAR     37  32  82 S6        29.93S WCI  32
* LAUREL APT   CLEAR     41  27  58 N/A        N/A
* ROUNDUP APT  CLEAR     43  28  56 N/A        N/A
* ALZADA       N/A       40  36  86 NW2        N/A
* HYSHAM       N/A       44  30  58 W3         N/A
* LAME DEER    N/A       42  31  65 SW6        N/A
* REED POINT   N/A       49  25  39 W12G19     N/A
* ROSCOE HILL  N/A       43  13  29 W4G15      N/A
$$

REGIONAL REPORTS...DAKOTAS
CITY           SKY/WX    TMP DP  RH WIND       PRES   REMARKS
WILLISTON      FAIR      43  39  86 SW5       29.85S
DICKINSON      CLEAR     39  37  93 W6        29.89R WCI  35
BEACH          N/A       41  39  93 SW9       29.91F
CROSBY         CLEAR     41  41 100 S10       29.82S
TIOGA          CLEAR     37  37 100 SW6       29.86F WCI  32
WATFORD CITY   CLEAR     39  39 100 SW6       29.85S WCI  35
BISMARCK       PTCLDY    45  43  93 S3        29.90R
GRAND FORKS    PTCLDY    50  46  86 W6        29.79R
FARGO          CLEAR     52  46  80 W7        29.82S
BUFFALO SD     CLEAR     37  34  89 W7        29.89R WCI  32
RAPID CITY     PTCLDY    39  36  89 CALM      29.99S
$$

REGIONAL REPORTS...WYOMING/IDAHO/WASHINGTON
CITY           SKY/WX    TMP DP  RH WIND       PRES   REMARKS
GILLETTE       CLEAR     39  36  89 SW12      30.02R WCI  32
SHERIDAN       CLEAR     36  30  79 S6        29.99S WCI  31
CODY           CLEAR     48  27  44 W16G29    30.02R
YELLOWSTONE LA PTCLDY    27  25  92 CALM      30.19R
SALMON         CLEAR     34  30  85 CALM      30.14F
MULLAN PASS    CLOUDY    36  34  92 VRB5      30.05S WCI  32
SAND POINT     MOCLDY    41  41 100 CALM      30.02R
SPOKANE        CLOUDY    52  36  55 SW12      30.05R
$$

REGIONAL REPORTS...ALBERTA
CITY           SKY/WX    TMP DP  RH WIND       PRES   REMARKS
LETHBRIDGE     LGT SNOW  36  34  92 W16       30.04R WCI  26
$$

REGIONAL REPORTS...SASKATCHEWAN
CITY           SKY/WX    TMP DP  RH WIND       PRES   REMARKS
SWIFT CURRENT  LGT RAIN  39  37  93 N23G30    29.81R WCI  28

$$



USA.gov is the U.S. government's official web portal to all federal, state and local government web resources and services.